Regional Weather Roundup
Issued by NWS

Home | Current Version | Previous Version | Text Only | Print | Product List | Glossary Off
Versions: 1 2 3 4 5 6 7 8 9 10 11 12 13 14 15 16 17 18 19 20 21 22 23 24 25 26 27 28 29 30 31 32 33 34 35 36 37 38 39 40 41 42 43 44 45 46 47 48 49 50

794
ASUS43 KMKX 290521
RWRWI

WISCONSIN REGIONAL WEATHER ROUNDUP
NATIONAL WEATHER SERVICE MILWAUKEE/SULLIVAN WI
1200 AM CDT THU JUN 29 2017

NOTE: "FAIR" INDICATES FEW OR NO CLOUDS BELOW 12,000 FEET WITH NO
SIGNIFICANT WEATHER AND/OR OBSTRUCTIONS TO VISIBILITY.

WIZ001-002-006>008-014>016-023>028-290600-
NORTHWEST WISCONSIN

CITY           SKY/WX    TMP DP  RH WIND       PRES   REMARKS
SUPERIOR ARPT  NOT AVBL
ASHLAND        CLOUDY    63  62  97 CALM      29.51S FOG
HAYWARD        CLOUDY    66  63  90 SW8       29.55R
SIREN          CLOUDY    65  62  91 W8        29.57R
CUMBERLAND     CLOUDY    64  61  88 W8        29.58R
RICE LAKE      CLOUDY    67  63  86 SW6       29.59R
CHETEK         CLOUDY    67  66  97 SW5       29.59R
LADYSMITH      CLOUDY    66  65  96 S8        29.59R
EAU CLAIRE     MOCLDY    66  64  93 S8        29.59R
MENOMONIE      MOCLDY    68  66  93 SW7       29.60R
NEW RICHMOND   CLOUDY    66  58  75 W8        29.61R
OSCEOLA        CLOUDY    67  61  80 W9        29.62R
$$

WIZ003>005-009-010-017-018-290600-
NORTH CENTRAL WISCONSIN

CITY           SKY/WX    TMP DP  RH WIND       PRES   REMARKS
MANITOWISH WTR CLOUDY    64  64 100 S8        29.59S
ARBOR VITAE    CLOUDY    65  64  95 S8        29.60S
WOODRUFF       CLOUDY    65  64  95 S8        29.60S
RHINELANDER    CLOUDY    65  65 100 S6        29.62F
EAGLE RIVER    CLOUDY    64  64 100 S6        29.61F
LAND O LAKES   CLOUDY    64  64 100 S6        29.62F FOG
PHILLIPS       CLOUDY    64  64 100 S7        29.58S
TOMAHAWK       NOT AVBL
MEDFORD        CLOUDY    64  63  97 S6        29.62R
MERRILL        CLOUDY    66  66 100 S3        29.62S
$$

WIZ029-030-035-036-043>047-290600-
CENTRAL WISCONSIN

CITY           SKY/WX    TMP DP  RH WIND       PRES   REMARKS
WAUSAU         CLOUDY    66  65  96 S9        29.61S
MOSINEE        CLOUDY    64  64 100 S8        29.64S FOG
MARSHFIELD     CLOUDY    65  63  93 S8        29.62R FOG
STEVENS POINT  CLOUDY    65  65 100 SW8       29.64S
WAUPACA        RAIN      67  66  94 S8        29.63F
WAUTOMA        CLOUDY    64  63  96 SE7       29.64F
WISC RAPIDS    CLOUDY    67  65  93 CALM      29.64S
CAMP DOUGLAS   CLOUDY    68  65  89 SW12G22   29.61F
$$

WIZ011>013-019>022-031-037>040-048>050-290600-
NORTHEAST WISCONSIN

CITY           SKY/WX    TMP DP  RH WIND       PRES   REMARKS
ANTIGO         CLOUDY    64  64 100 S8        29.64F FOG
SHAWANO        CLOUDY    68  64  88 S5        29.63S
OCONTO         CLOUDY    64  62  94 S3        29.63S
STURGEON BAY     N/A     62  60  93 S10       29.66S
GREEN BAY      CLOUDY    67  64  90 S13       29.65S
MANITOWOC      CLOUDY    61  58  90 S10       29.68F
APPLETON       CLOUDY    64  64 100 S12       29.64S
CLINTONVILLE   CLOUDY    66  63  88 S10       29.63F
OSHKOSH        CLOUDY    66  63  90 S5        29.66R
$$

WIZ032>034-041-042-053>061-290600-
SOUTHWEST WISCONSIN

CITY           SKY/WX    TMP DP  RH WIND       PRES   REMARKS
LA CROSSE      LGT RAIN  70  66  87 S10       29.64S
SPARTA         CLOUDY    64  64  98 CALM      29.64F
VIROQUA        CLOUDY    65  65 100 S9        29.68F
BOSCOBEL       CLOUDY    68  66  93 SE3       29.71R
PRAIRIE DU CHI CLOUDY    67  64  91 CALM      29.68S
PLATTEVILLE    CLOUDY    66  66 100 CALM      29.71R
$$

WIZ056-057-062-063-064-067-068-290600-
SOUTH CENTRAL WISCONSIN

CITY           SKY/WX    TMP DP  RH WIND       PRES   REMARKS
REEDSBURG      CLOUDY    66  66 100 S12       29.65F
BARABOO/DELLS  CLOUDY    66  64  91 S12       29.67F
LONE ROCK      MOCLDY    68  65  90 W3        29.69R
MINERAL POINT  CLOUDY    66  66 100 S7        29.72R
MADISON        CLOUDY    67  64  90 S9        29.72R
MIDDLETON      CLOUDY    67  67 100 CALM      29.72R
WATERTOWN      CLOUDY    65  65 100 S10       29.69F
MONROE         CLOUDY    70  64  83 SW3       29.71R
JANESVILLE     CLOUDY    66  66 100 SE7       29.70F
$$

WIZ051-052-058>065-066-070>072-290600-
SOUTHEAST WISCONSIN

CITY           SKY/WX    TMP DP  RH WIND       PRES   REMARKS
MILWAUKEE      LGT RAIN  66  65  96 S17G25    29.72F
WAUKESHA       CLOUDY    63  61  94 S10G17    29.72F
MILWAUKEE/TIMM LGT RAIN  64  61  88 S9        29.72F
RACINE         RAIN      65  63  93 SE15      29.76F FOG
KENOSHA        LGT RAIN  65  63  93 S17       29.77F
FOND DU LAC    CLOUDY    67  62  84 S13       29.67F
SHEBOYGAN      CLOUDY    65  64  97 S14       29.69F
WEST BEND      CLOUDY    63  63 100 S12G17    29.69F
JUNEAU         CLOUDY    65  63  95 S12G18    29.69F
$$

LSZ147-162-290600-
LAKE SUPERIOR

STATION/POSITION TIME  TEMP    WIND        PRES    WAVE
                       AIR SEA DIR/SP/G            HT/PER
                 (UTC) (F)     (DEG/KT/KT) (MB)    (FT/S)
W MID LAKE BUOY  0450   46 39   60/ 14/ 17 1000.9F   2/ 4
DEVILS ISLAND    0500   51      70/ 16/ 17  999.6F
SAXON HARBOR     0440   65     190/  1/  3  999.3R
$$

LMZ867-665-643>646-290600-
LAKE MICHIGAN

STATION/POSITION TIME  TEMP    WIND        PRES    WAVE
                       AIR SEA DIR/SP/G            HT/PER
                 (UTC) (F)     (DEG/KT/KT) (MB)    (FT/S)
CHAMBERS ISLAND  0440   62     170/  5/ 11 1003.7S
S GREEN BAY BUOY 0500   66     180/ 12/ 16 1003.4
N MID LAKE BUOY  0450   58 54  190/ 21/ 23 1005.1R   6/ 7
NORTHPORT PIER   0440   60     170/  9/ 15 1004.4S
KEWAUNEE LAKESHO 0454   55     180/ 12/ 13 1004.5S
SHEBOYGAN LAKESH 0500   57     180/ 20/ 22 1005.2F
PORT WASHINGTON  0440   58     200/ 10/ 15 1006.8F
ATWATER BUOY     0409   57 47  160/ 10/ 12 1007.6F
MILWAUKEE LAKESH 0500   64     190/ 18/ 20   N/A
S MID LAKE BUOY  0450   61 60  210/  8/ 10 1010.8R   3/ 5
KENOSHA   LAKESH 0500   61     170/ 18/ 21 1008.1
$$

TC  - TEMPERATURE IN CELSIUS
VSB - VISIBILITY IN STATUTE MILES
WCI - WIND CHILL INDEX
HX  - HEAT INDEX





USA.gov is the U.S. government's official web portal to all federal, state and local government web resources and services.